HAWK-3B

Last updated on Tue Sep 22 2026 00:03:52 GMT+0000 (Coordinated Universal Time)

1 48931U 21059BE 26263.83563002 .00049479 00000+0 29113-3 0 9999 2 48931 97.6553 110.1688 0002779 341.1538 18.9625 15.78094621292891
UTC large
Height (km)
Speed (km/s)
/
Latitude / Longitude
Inclination (degrees)
Orbital Period (minutes)
Azimuth
Elevation
Range (km)
Doppler Factor

Next 0 passes for location: London (51.5072 / 0.1276)

No passes found over London.
HAWK-3B